Flag for U.S.A. Weather past 2 weeks in Barnstable, Massachusetts, U.S.A.

Now
46 °F

Sunny.


Feels Like: 41 °F
Forecast: 38 / 47 °F
Wind: 9 mph from West

Location: Barnstable Municipal-Boardman Airport

Current Time: Dec 26, 2014 at 10:55:37 AM

Latest Report: Dec 26, 2014 at 9:56 AM


Visibility: 10 mi

Pressure: 30.15 "Hg

Humidity: 56%

Dew point: 31 °F

Location of BarnstableLocation

Historic Weather in Barnstable — Graph

°F

Barnstable temperature yesterday

Maximum temperature yesterday: 58 °F (at 7:56 AM)
Minimum temperature yesterday: 40 °F (at 9:56 PM)
Average temperature yesterday: 51 °F

Past Weeks' High & Low Weather Summary

 TemperatureHumidityPressure
High60 °F (Dec 24, 10:56 PM)100% (Dec 17, 3:56 AM)30.35 "Hg (Dec 17, 3:56 AM)
Low26 °F (Dec 12, 6:56 AM)52% (Dec 25, 2:56 PM)29.55 "Hg (Dec 25, 5:56 AM)
Average41 °F81%29.95 "Hg
* Reported Dec 11 8:56 AM — Dec 26 8:56 AM, Barnstable, Weather by CustomWeather, © 2014

Note: Actual official high and low records may vary slightly from our data, if they occured in-between our weather recording intervals... More about our weather records

Advertising

Barnstable weather history for previous 24 hours

 ConditionsComfort  
Time TempWeatherWind HumidityBarometerVisibility
8:56 AM
Dec 26
44 °FSunny.13 mph63%30.15 "Hg10 mi
7:56 AM39 °FSunny.7 mph76%30.14 "Hg10 mi
6:56 AM38 °FClear.7 mph76%30.12 "Hg10 mi
5:56 AM37 °FClear.7 mph76%30.09 "Hg10 mi
4:56 AM39 °FClear.8 mph73%30.09 "Hg10 mi
3:56 AM37 °FClear.8 mph79%30.05 "Hg10 mi
2:56 AM39 °FClear.7 mph73%30.04 "Hg10 mi
1:56 AM40 °FClear.7 mph73%30.04 "Hg10 mi
12:56 AM41 °FClear.7 mph67%30.00 "Hg10 mi
11:56 PM
Dec 25
42 °FClear.9 mph65%29.97 "Hg10 mi
10:56 PM42 °FClear.8 mph65%29.96 "Hg10 mi
9:56 PM40 °FClear.5 mph70%29.94 "Hg10 mi
8:56 PM45 °FClear.8 mph56%29.91 "Hg10 mi
7:56 PM45 °FClear.6 mph56%29.88 "Hg10 mi
6:56 PM46 °FClear.7 mph54%29.85 "Hg10 mi
5:56 PM46 °FClear.6 mph61%29.82 "Hg10 mi
4:56 PM48 °FClear.6 mph61%29.76 "Hg10 mi
3:56 PM51 °FOvercast.8 mph54%29.71 "Hg10 mi
2:56 PM53 °FPassing clouds.8 mph52%29.67 "Hg10 mi
1:56 PM55 °FPassing clouds.13 mph62%29.61 "Hg10 mi
12:56 PM53 °FSunny.12 mph80%29.59 "Hg10 mi
11:56 AM50 °FBroken clouds.12 mph89%29.57 "Hg10 mi
10:56 AM51 °FLight rain. Mostly cloudy.21 mph92%29.59 "Hg10 mi
Weather by CustomWeather, © 2014

See weather overviewHow to use our weather pages